| time (UTC) | temp F | wind direction | speed MPH | gust MPH | rain 1hr in | rain 24hr in | rain mn in | humidity % | barometer mb |
| 20260505082907 | 62 | 249 | 3.0 | 5.0 | 0.00 | 0.00 | 0.00 | 71 | 1014.2 |
| 20260505082403 | 62 | 62 | 2.0 | 2.0 | 0.00 | 0.00 | 0.00 | 72 | 1014.0 |
| 20260505081900 | 62 | 153 | 1.0 | 2.0 | 0.00 | 0.00 | 0.00 | 71 | 1014.2 |
| 20260505081357 | 62 | 122 | 1.0 | 1.0 | 0.00 | 0.00 | 0.00 | 71 | 1014.4 |
| 20260505080854 | 63 | 121 | 0.0 | 1.0 | 0.00 | 0.00 | 0.00 | 70 | 1014.1 |
| 20260505080350 | 63 | 46 | 3.0 | 5.0 | 0.00 | 0.00 | 0.00 | 70 | 1014.1 |
| 20260505075845 | 63 | 93 | 0.0 | 1.0 | 0.00 | 0.00 | 0.00 | 70 | 1014.0 |
| 20260505075342 | 63 | 134 | 1.0 | 1.0 | 0.00 | 0.00 | 0.00 | 70 | 1014.0 |
| 20260505074840 | 63 | 117 | 1.0 | 2.0 | 0.00 | 0.00 | 0.00 | 69 | 1014.1 |
| 20260505074337 | 63 | 155 | 3.0 | 3.0 | 0.00 | 0.00 | 0.00 | 69 | 1014.1 |
| 20260505073834 | 63 | 201 | 3.0 | 3.0 | 0.00 | 0.00 | 0.00 | 70 | 1013.9 |
| 20260505073332 | 63 | 248 | 1.0 | 2.0 | 0.00 | 0.00 | 0.00 | 69 | 1013.8 |
| 20260505072829 | 63 | 101 | 0.0 | 1.0 | 0.00 | 0.00 | 0.00 | 69 | 1013.7 |
| 20260505072325 | 63 | 116 | 1.0 | 2.0 | 0.00 | 0.00 | 0.00 | 69 | 1013.9 |
| 20260505071821 | 63 | 91 | 1.0 | 1.0 | 0.00 | 0.00 | 0.00 | 69 | 1013.8 |
| 20260505071317 | 63 | 112 | 0.0 | 0.0 | 0.00 | 0.00 | 0.00 | 69 | 1013.9 |
| 20260505070816 | 64 | 107 | 0.0 | 0.0 | 0.00 | 0.00 | 0.00 | 68 | 1013.8 |
| 20260505070312 | 64 | 284 | 3.0 | 6.0 | 0.00 | 0.00 | 0.00 | 68 | 1013.9 |
| 20260505065807 | 64 | 196 | 1.0 | 2.0 | 0.00 | 0.00 | 0.00 | 68 | 1013.4 |
| 20260505065304 | 64 | 28 | 2.0 | 2.0 | 0.00 | 0.00 | 0.00 | 68 | 1013.7 |
| 20260505064801 | 64 | 119 | 0.0 | 1.0 | 0.00 | 0.00 | 0.00 | 68 | 1013.6 |
| 20260505064258 | 64 | 95 | 1.0 | 1.0 | 0.00 | 0.00 | 0.00 | 68 | 1013.5 |
| 20260505063756 | 64 | 108 | 1.0 | 1.0 | 0.00 | 0.00 | 0.00 | 68 | 1013.4 |
| 20260505063252 | 64 | 124 | 2.0 | 2.0 | 0.00 | 0.00 | 0.00 | 68 | 1013.6 |
| 20260505062749 | 64 | 112 | 1.0 | 2.0 | 0.00 | 0.00 | 0.00 | 68 | 1013.5 |
| 20260505062246 | 64 | 104 | 3.0 | 3.0 | 0.00 | 0.00 | 0.00 | 68 | 1013.5 |
| 20260505061743 | 64 | 356 | 2.0 | 2.0 | 0.00 | 0.00 | 0.00 | 68 | 1013.6 |
| 20260505061241 | 64 | 210 | 3.0 | 5.0 | 0.00 | 0.00 | 0.00 | 68 | 1013.5 |
| 20260505060738 | 64 | 292 | 2.0 | 5.0 | 0.00 | 0.00 | 0.00 | 68 | 1013.5 |
| 20260505060235 | 65 | 104 | 1.0 | 1.0 | 0.00 | 0.00 | 0.00 | 68 | 1013.5 |
| 20260505055730 | 65 | 108 | 1.0 | 1.0 | 0.00 | 0.00 | 0.00 | 67 | 1013.4 |
| 20260505055227 | 65 | 30 | 2.0 | 2.0 | 0.00 | 0.00 | 0.00 | 67 | 1013.5 |
| 20260505054724 | 65 | 171 | 3.0 | 5.0 | 0.00 | 0.00 | 0.00 | 67 | 1013.6 |
| 20260505054222 | 65 | 316 | 3.0 | 5.0 | 0.00 | 0.00 | 0.00 | 67 | 1013.5 |
| 20260505053720 | 65 | 147 | 3.0 | 3.0 | 0.00 | 0.00 | 0.00 | 67 | 1013.7 |
| 20260505053216 | 65 | 342 | 2.0 | 3.0 | 0.00 | 0.00 | 0.00 | 68 | 1013.5 |
| 20260505052714 | 65 | 338 | 2.0 | 5.0 | 0.00 | 0.00 | 0.00 | 67 | 1013.7 |
| 20260505052210 | 65 | 95 | 1.0 | 2.0 | 0.00 | 0.00 | 0.00 | 68 | 1013.6 |
| 20260505051708 | 65 | 154 | 2.0 | 3.0 | 0.00 | 0.00 | 0.00 | 68 | 1013.7 |
| 20260505051206 | 65 | 74 | 2.0 | 2.0 | 0.00 | 0.00 | 0.00 | 67 | 1013.7 |
| 20260505050703 | 65 | 120 | 4.0 | 5.0 | 0.00 | 0.00 | 0.00 | 68 | 1013.6 |
| 20260505050201 | 65 | 123 | 1.0 | 1.0 | 0.00 | 0.00 | 0.00 | 68 | 1013.7 |
| 20260505041631 | 66 | 95 | 2.0 | 3.0 | 0.00 | 0.00 | 0.00 | 66 | 1013.8 |
| 20260505041128 | 66 | 117 | 2.0 | 2.0 | 0.00 | 0.00 | 0.00 | 67 | 1013.6 |
| 20260505040625 | 66 | 90 | 2.0 | 3.0 | 0.00 | 0.00 | 0.00 | 67 | 1013.7 |
| 20260505040122 | 66 | 156 | 3.0 | 6.0 | 0.00 | 0.00 | 0.00 | 67 | 1013.7 |
| 20260505035618 | 66 | 270 | 2.0 | 2.0 | 0.00 | 0.01 | 0.01 | 67 | 1013.7 |
| 20260505035115 | 66 | 90 | 0.0 | 1.0 | 0.00 | 0.01 | 0.01 | 66 | 1013.7 |
| 20260505034612 | 67 | 144 | 4.0 | 5.0 | 0.00 | 0.01 | 0.01 | 66 | 1013.6 |
| 20260505034109 | 67 | 110 | 1.0 | 1.0 | 0.00 | 0.01 | 0.01 | 67 | 1013.7 |
| 20260505033605 | 67 | 105 | 0.0 | 0.0 | 0.00 | 0.01 | 0.01 | 67 | 1013.6 |
| 20260505033104 | 67 | 106 | 2.0 | 2.0 | 0.00 | 0.01 | 0.01 | 67 | 1013.5 |
| 20260505032601 | 67 | 85 | 5.0 | 8.0 | 0.00 | 0.01 | 0.01 | 67 | 1013.5 |
| 20260505032057 | 67 | 221 | 2.0 | 2.0 | 0.00 | 0.01 | 0.01 | 67 | 1013.5 |
| 20260505031555 | 67 | 118 | 1.0 | 1.0 | 0.00 | 0.01 | 0.01 | 68 | 1013.5 |
| 20260505031051 | 67 | 117 | 2.0 | 2.0 | 0.00 | 0.01 | 0.01 | 67 | 1013.6 |
| 20260505030548 | 67 | 112 | 1.0 | 2.0 | 0.00 | 0.01 | 0.01 | 67 | 1013.4 |
| 20260505030044 | 67 | 31 | 3.0 | 5.0 | 0.00 | 0.01 | 0.01 | 68 | 1013.2 |
| 20260505025540 | 68 | 129 | 2.0 | 2.0 | 0.00 | 0.01 | 0.01 | 68 | 1013.3 |
| 20260505025039 | 68 | 134 | 5.0 | 6.0 | 0.00 | 0.01 | 0.01 | 68 | 1013.4 |
| 20260505024536 | 68 | 171 | 4.0 | 6.0 | 0.00 | 0.01 | 0.01 | 68 | 1013.3 |
| 20260505024033 | 68 | 93 | 2.0 | 2.0 | 0.00 | 0.01 | 0.01 | 69 | 1013.5 |
| 20260505023530 | 68 | 179 | 1.0 | 1.0 | 0.00 | 0.01 | 0.01 | 68 | 1013.1 |
| 20260505023027 | 68 | 98 | 3.0 | 3.0 | 0.00 | 0.01 | 0.01 | 68 | 1013.1 |
| 20260505022525 | 68 | 109 | 1.0 | 3.0 | 0.00 | 0.01 | 0.01 | 68 | 1013.2 |
| 20260505022022 | 68 | 157 | 5.0 | 6.0 | 0.00 | 0.01 | 0.01 | 68 | 1013.1 |
| 20260505021518 | 68 | 95 | 0.0 | 0.0 | 0.00 | 0.01 | 0.01 | 67 | 1013.1 |
| 20260505021014 | 68 | 110 | 2.0 | 5.0 | 0.00 | 0.01 | 0.01 | 67 | 1013.1 |
| 20260505020514 | 68 | 121 | 1.0 | 1.0 | 0.00 | 0.01 | 0.01 | 66 | 1013.2 |
| 20260505020012 | 68 | 109 | 1.0 | 2.0 | 0.00 | 0.01 | 0.01 | 65 | 1012.8 |
| 20260505015509 | 68 | 131 | 2.0 | 2.0 | 0.00 | 0.01 | 0.01 | 64 | 1012.7 |
| 20260505015006 | 68 | 134 | 1.0 | 1.0 | 0.00 | 0.01 | 0.01 | 62 | 1012.7 |
| 20260505014503 | 68 | 90 | 0.0 | 0.0 | 0.00 | 0.01 | 0.01 | 59 | 1012.9 |
| 20260505014000 | 68 | 132 | 1.0 | 2.0 | 0.00 | 0.01 | 0.01 | 58 | 1012.8 |
| 20260505013457 | 67 | 109 | 0.0 | 0.0 | 0.00 | 0.01 | 0.01 | 58 | 1012.8 |
| 20260505012954 | 67 | 116 | 0.0 | 1.0 | 0.00 | 0.01 | 0.01 | 55 | 1012.8 |
| 20260505012452 | 67 | 113 | 0.0 | 0.0 | 0.00 | 0.01 | 0.01 | 58 | 1012.9 |
| 20260505011949 | 67 | 111 | 1.0 | 1.0 | 0.00 | 0.01 | 0.01 | 53 | 1012.7 |
| 20260505011445 | 67 | 106 | 0.0 | 0.0 | 0.00 | 0.01 | 0.01 | 56 | 1012.7 |
| 20260505010942 | 68 | 101 | 0.0 | 1.0 | 0.00 | 0.01 | 0.01 | 54 | 1012.6 |
| 20260505010437 | 68 | 101 | 0.0 | 0.0 | 0.00 | 0.01 | 0.01 | 56 | 1012.6 |
| 20260505005934 | 68 | 101 | 0.0 | 0.0 | 0.00 | 0.01 | 0.01 | 53 | 1012.6 |
| 20260505005431 | 68 | 109 | 0.0 | 0.0 | 0.00 | 0.01 | 0.01 | 53 | 1012.5 |
| 20260505004928 | 68 | 110 | 0.0 | 0.0 | 0.00 | 0.01 | 0.01 | 51 | 1012.5 |
| 20260505004425 | 69 | 113 | 1.0 | 1.0 | 0.00 | 0.01 | 0.01 | 56 | 1012.3 |
| 20260505003922 | 69 | 112 | 0.0 | 0.0 | 0.00 | 0.01 | 0.01 | 49 | 1012.4 |
| 20260505003419 | 70 | 112 | 0.0 | 0.0 | 0.00 | 0.01 | 0.01 | 48 | 1012.3 |
| 20260505002915 | 71 | 110 | 1.0 | 1.0 | 0.00 | 0.01 | 0.01 | 50 | 1012.2 |
| 20260505002412 | 71 | 109 | 0.0 | 0.0 | 0.00 | 0.01 | 0.01 | 46 | 1012.2 |
| 20260505001910 | 72 | 120 | 1.0 | 1.0 | 0.00 | 0.01 | 0.01 | 47 | 1012.1 |
| 20260505001407 | 72 | 125 | 1.0 | 1.0 | 0.00 | 0.01 | 0.01 | 45 | 1011.9 |
| 20260505000904 | 72 | 108 | 1.0 | 1.0 | 0.00 | 0.01 | 0.01 | 46 | 1012.1 |
| 20260505000402 | 73 | 113 | 1.0 | 1.0 | 0.00 | 0.01 | 0.01 | 45 | 1011.9 |
| 20260504235858 | 73 | 169 | 1.0 | 1.0 | 0.00 | 0.01 | 0.01 | 44 | 1012.0 |
| 20260504235355 | 73 | 121 | 1.0 | 1.0 | 0.00 | 0.01 | 0.01 | 44 | 1012.0 |
| 20260504234852 | 73 | 277 | 2.0 | 3.0 | 0.00 | 0.01 | 0.01 | 44 | 1012.1 |
| 20260504234350 | 74 | 98 | 1.0 | 2.0 | 0.00 | 0.01 | 0.01 | 45 | 1011.9 |
| 20260504233846 | 74 | 106 | 0.0 | 1.0 | 0.00 | 0.01 | 0.01 | 43 | 1011.6 |
| 20260504233341 | 75 | 71 | 2.0 | 2.0 | 0.00 | 0.01 | 0.01 | 42 | 1011.8 |
| 20260504232838 | 75 | 104 | 0.0 | 0.0 | 0.00 | 0.01 | 0.01 | 42 | 1011.6 |
| 20260504232336 | 75 | 172 | 1.0 | 2.0 | 0.00 | 0.01 | 0.01 | 41 | 1011.4 |
| 20260504231832 | 75 | 121 | 2.0 | 2.0 | 0.00 | 0.01 | 0.01 | 41 | 1011.5 |
| 20260504231329 | 75 | 99 | 0.0 | 1.0 | 0.00 | 0.01 | 0.01 | 41 | 1011.7 |
| 20260504230825 | 75 | 105 | 1.0 | 1.0 | 0.00 | 0.01 | 0.01 | 41 | 1011.5 |
| 20260504230323 | 76 | 89 | 0.0 | 1.0 | 0.00 | 0.01 | 0.01 | 40 | 1011.4 |
| 20260504225822 | 76 | 122 | 0.0 | 1.0 | 0.00 | 0.01 | 0.01 | 40 | 1011.6 |
| 20260504225317 | 77 | 98 | 0.0 | 1.0 | 0.00 | 0.01 | 0.01 | 40 | 1011.5 |
| 20260504224815 | 78 | 176 | 3.0 | 3.0 | 0.00 | 0.01 | 0.01 | 37 | 1011.6 |
| 20260504224312 | 78 | 100 | 1.0 | 1.0 | 0.00 | 0.01 | 0.01 | 37 | 1011.7 |
| 20260504223809 | 78 | 100 | 1.0 | 1.0 | 0.00 | 0.01 | 0.01 | 37 | 1011.6 |
| 20260504223304 | 78 | 111 | 2.0 | 2.0 | 0.00 | 0.01 | 0.01 | 37 | 1011.7 |
| 20260504222801 | 79 | 211 | 1.0 | 2.0 | 0.00 | 0.01 | 0.01 | 37 | 1011.7 |
| 20260504222258 | 79 | 117 | 1.0 | 2.0 | 0.00 | 0.01 | 0.01 | 37 | 1011.7 |
| 20260504221756 | 79 | 119 | 0.0 | 1.0 | 0.00 | 0.01 | 0.01 | 36 | 1011.4 |
| 20260504221253 | 80 | 227 | 3.0 | 3.0 | 0.00 | 0.01 | 0.01 | 35 | 1011.5 |
| 20260504220749 | 80 | 174 | 2.0 | 2.0 | 0.00 | 0.01 | 0.01 | 36 | 1011.7 |
| 20260504220246 | 80 | 130 | 2.0 | 2.0 | 0.00 | 0.01 | 0.01 | 35 | 1011.7 |
| 20260504215744 | 80 | 102 | 1.0 | 1.0 | 0.00 | 0.01 | 0.01 | 36 | 1011.5 |
| 20260504215240 | 81 | 325 | 3.0 | 5.0 | 0.00 | 0.01 | 0.01 | 34 | 1011.8 |
| 20260504214736 | 80 | 216 | 0.0 | 1.0 | 0.00 | 0.01 | 0.01 | 34 | 1011.8 |
| 20260504214232 | 80 | 88 | 2.0 | 2.0 | 0.00 | 0.01 | 0.01 | 35 | 1011.7 |
| 20260504213729 | 80 | 85 | 1.0 | 1.0 | 0.00 | 0.01 | 0.01 | 36 | 1011.6 |
| 20260504213226 | 81 | 81 | 1.0 | 2.0 | 0.00 | 0.01 | 0.01 | 35 | 1011.6 |
| 20260504212723 | 81 | 191 | 2.0 | 3.0 | 0.00 | 0.01 | 0.01 | 35 | 1011.6 |
| 20260504212219 | 80 | 121 | 1.0 | 1.0 | 0.00 | 0.01 | 0.01 | 35 | 1011.9 |
| 20260504211717 | 80 | 146 | 1.0 | 2.0 | 0.00 | 0.01 | 0.01 | 35 | 1011.7 |
| 20260504211213 | 81 | 81 | 2.0 | 2.0 | 0.00 | 0.01 | 0.01 | 35 | 1011.5 |
| 20260504210711 | 80 | 202 | 1.0 | 2.0 | 0.00 | 0.01 | 0.01 | 35 | 1011.9 |
| 20260504210207 | 81 | 112 | 2.0 | 2.0 | 0.00 | 0.01 | 0.01 | 35 | 1011.7 |
| 20260504205704 | 81 | 256 | 2.0 | 2.0 | 0.00 | 0.01 | 0.01 | 36 | 1011.6 |
| 20260504205202 | 80 | 105 | 2.0 | 3.0 | 0.00 | 0.01 | 0.01 | 36 | 1011.7 |
| 20260504204700 | 81 | 62 | 3.0 | 5.0 | 0.00 | 0.01 | 0.01 | 34 | 1011.6 |
| 20260504204159 | 81 | 306 | 1.0 | 2.0 | 0.00 | 0.01 | 0.01 | 35 | 1011.6 |
| 20260504203657 | 82 | 127 | 1.0 | 1.0 | 0.00 | 0.01 | 0.01 | 35 | 1011.7 |
| 20260504203154 | 81 | 229 | 3.0 | 5.0 | 0.00 | 0.01 | 0.01 | 35 | 1011.7 |
| 20260504202649 | 80 | 141 | 2.0 | 2.0 | 0.00 | 0.01 | 0.01 | 36 | 1011.9 |
| 20260504202146 | 80 | 149 | 2.0 | 2.0 | 0.00 | 0.01 | 0.01 | 35 | 1011.9 |
| 20260504201643 | 81 | 47 | 2.0 | 3.0 | 0.00 | 0.01 | 0.01 | 36 | 1011.8 |
| 20260504201141 | 81 | 144 | 1.0 | 2.0 | 0.00 | 0.01 | 0.01 | 37 | 1012.0 |
| 20260504200637 | 82 | 103 | 1.0 | 1.0 | 0.00 | 0.01 | 0.01 | 37 | 1012.0 |
| 20260504200134 | 81 | 143 | 1.0 | 1.0 | 0.00 | 0.01 | 0.01 | 37 | 1012.0 |
| 20260504195630 | 80 | 89 | 2.0 | 2.0 | 0.00 | 0.01 | 0.01 | 37 | 1012.0 |
| 20260504195126 | 80 | 304 | 1.0 | 1.0 | 0.00 | 0.01 | 0.01 | 37 | 1012.1 |
| 20260504194623 | 79 | 309 | 1.0 | 2.0 | 0.00 | 0.01 | 0.01 | 39 | 1012.5 |
| 20260504194119 | 78 | 271 | 2.0 | 3.0 | 0.00 | 0.01 | 0.01 | 38 | 1012.4 |
| 20260504193615 | 78 | 234 | 1.0 | 2.0 | 0.00 | 0.01 | 0.01 | 39 | 1012.4 |
| 20260504193114 | 78 | 275 | 4.0 | 5.0 | 0.00 | 0.01 | 0.01 | 38 | 1012.6 |
| 20260504192612 | 78 | 93 | 1.0 | 1.0 | 0.00 | 0.01 | 0.01 | 37 | 1012.6 |
| 20260504192110 | 78 | 147 | 2.0 | 2.0 | 0.00 | 0.01 | 0.01 | 37 | 1012.7 |
| 20260504191608 | 79 | 255 | 3.0 | 3.0 | 0.00 | 0.01 | 0.01 | 37 | 1012.7 |
| 20260504191104 | 79 | 82 | 1.0 | 2.0 | 0.00 | 0.01 | 0.01 | 35 | 1012.9 |
| 20260504190600 | 78 | 285 | 3.0 | 3.0 | 0.00 | 0.01 | 0.01 | 33 | 1012.9 |
| 20260504190056 | 78 | 124 | 2.0 | 3.0 | 0.00 | 0.01 | 0.01 | 32 | 1012.9 |
| 20260504185553 | 78 | 116 | 4.0 | 7.0 | 0.00 | 0.01 | 0.01 | 35 | 1013.0 |
| 20260504185050 | 79 | 219 | 3.0 | 3.0 | 0.00 | 0.01 | 0.01 | 36 | 1013.0 |
| 20260504184545 | 78 | 225 | 3.0 | 5.0 | 0.00 | 0.01 | 0.01 | 38 | 1013.1 |
| 20260504184041 | 78 | 339 | 3.0 | 5.0 | 0.00 | 0.01 | 0.01 | 36 | 1013.1 |
| 20260504183538 | 77 | 93 | 1.0 | 2.0 | 0.00 | 0.01 | 0.01 | 40 | 1013.4 |
| 20260504183036 | 77 | 60 | 1.0 | 2.0 | 0.00 | 0.01 | 0.01 | 40 | 1013.4 |
| 20260504182533 | 76 | 129 | 0.0 | 0.0 | 0.00 | 0.01 | 0.01 | 41 | 1013.2 |
| 20260504182030 | 76 | 228 | 3.0 | 5.0 | 0.05 | 0.01 | 0.01 | 39 | 1013.5 |
| 20260504181527 | 77 | 70 | 2.0 | 3.0 | 0.05 | 0.01 | 0.01 | 40 | 1013.5 |
| 20260504181026 | 76 | 122 | 2.0 | 2.0 | 0.00 | 0.00 | 0.00 | 42 | 1013.7 |
| 20260504180524 | 75 | 331 | 2.0 | 2.0 | 0.00 | 0.00 | 0.00 | 41 | 1013.7 |
| 20260504180023 | 75 | 90 | 1.0 | 1.0 | 0.00 | 0.00 | 0.00 | 43 | 1013.6 |
| 20260504175519 | 75 | 99 | 0.0 | 1.0 | 0.00 | 0.00 | 0.00 | 41 | 1013.7 |
| 20260504175016 | 75 | 343 | 3.0 | 3.0 | 0.00 | 0.00 | 0.00 | 41 | 1013.6 |
| 20260504174514 | 78 | 317 | 4.0 | 6.0 | 0.00 | 0.00 | 0.00 | 38 | 1013.8 |
| 20260504174011 | 77 | 269 | 2.0 | 2.0 | 0.00 | 0.00 | 0.00 | 39 | 1013.8 |
| 20260504173508 | 77 | 183 | 2.0 | 2.0 | 0.00 | 0.00 | 0.00 | 39 | 1013.7 |
| 20260504173005 | 76 | 134 | 0.0 | 0.0 | 0.00 | 0.00 | 0.00 | 40 | 1013.7 |
| 20260504172501 | 76 | 116 | 0.0 | 1.0 | 0.00 | 0.00 | 0.00 | 39 | 1014.0 |
| 20260504171957 | 76 | 229 | 3.0 | 3.0 | 0.00 | 0.00 | 0.00 | 38 | 1014.2 |
| 20260504171454 | 76 | 103 | 0.0 | 1.0 | 0.00 | 0.00 | 0.00 | 40 | 1013.9 |
| 20260504170951 | 75 | 118 | 1.0 | 1.0 | 0.00 | 0.00 | 0.00 | 42 | 1014.1 |
| 20260504170447 | 75 | 357 | 3.0 | 3.0 | 0.00 | 0.00 | 0.00 | 40 | 1014.4 |
| 20260504160407 | 72 | 93 | 1.0 | 2.0 | 0.00 | 0.00 | 0.00 | 47 | 1015.1 |
| 20260504150831 | 69 | 149 | 3.0 | 5.0 | 0.00 | 0.00 | 0.00 | 51 | 1015.3 |
| 20260504150328 | 69 | 192 | 2.0 | 2.0 | 0.00 | 0.00 | 0.00 | 51 | 1015.3 |
| 20260504141258 | 65 | 130 | 1.0 | 1.0 | 0.00 | 0.00 | 0.00 | 59 | 1015.7 |
| 20260504140755 | 64 | 120 | 2.0 | 2.0 | 0.00 | 0.00 | 0.00 | 60 | 1015.3 |
| 20260504140250 | 63 | 102 | 2.0 | 2.0 | 0.00 | 0.00 | 0.00 | 60 | 1015.5 |
| 20260504130719 | 62 | 151 | 0.0 | 1.0 | 0.00 | 0.00 | 0.00 | 62 | 1015.8 |
| 20260504130215 | 62 | 60 | 1.0 | 1.0 | 0.00 | 0.00 | 0.00 | 63 | 1016.1 |
| 20260504120139 | 59 | 145 | 0.0 | 1.0 | 0.00 | 0.00 | 0.00 | 68 | 1016.2 |
| 20260504110606 | 55 | 105 | 0.0 | 0.0 | 0.00 | 0.00 | 0.00 | 69 | 1016.3 |
| 20260504100528 | 54 | 108 | 0.0 | 0.0 | 0.00 | 0.00 | 0.00 | 73 | 1016.1 |